Location: Usti nad Labem
(50.6670°N, 14.0330°E)
Time: 04:36:35
(UTC+01:00)

ISS - Pass Details

Date: 30 November 2023
Orbit: 414 x 422 km, 51.6° (Epoch: 29 February)

Event Time Altitude Azimuth Distance (km) Brightness Sun altitude
Rises 19:06:46 0° 285° (WNW) 2,416 1.2 -28.2°
Reaches altitude 10° 19:09:06 10° 272° (W) 1,550 0.1 -28.6°
Enters shadow 19:10:36 19° 252° (WSW) 1,098 -1.0 -28.9°
